User: anonymous   Login
Location: ?????????
(55.6553°N, 38.9075°E)
Time: 12:50:59
(UTC+00:00)
Language:

COSMOS 2455 - Orbit

View from above orbital plane
View from above orbital plane
View from above satellite
View from above satellite

Ground track
Ground track

The orbit data is extracted from the following two-line orbital elements,

1 36095U 09063A   19340.14724651 -.00000052  00000-0  16628-4 0  9993
2 36095  67.1483 291.4550 0004377 242.2674 117.7967 13.96760961512215
Epoch (UTC): 06 December 2019 03:32:02
Eccentricity: 0.0004377
inclination: 67.1483°
perigee height: 902 km
apogee height: 908 km
right ascension of ascending node: 291.4550°
argument of perigee: 242.2674°
revolutions per day: 13.96760961
mean anomaly at epoch: 117.7967°
orbit number at epoch: 51221

The dashed part of the orbit path shows where the satellite is in the earth's shadow,  

DLR